Saint Bonnet de Bellac- Haute Vienne - France
Donnes mto: jeudi, 03/05/2012
Date Horaire Temp. E. Hum. E. P.atmo. Pluie Vent Direction Direction Ensoleilleme Solaire P. de rose Temp au vent Rafales
03/05/2012 00:00 9,9 C 76 % 1014,4 hPa 0,0 mm 0,0 km/h (0 Bft) E 90 0 min 0 W/m 5,9 C 9,9 C 3,2 km/h (1 Bft)
03/05/2012 00:10 9,8 C 77 % 1014,3 hPa 0,0 mm 0,0 km/h (0 Bft) NE 45 0 min 0 W/m 6,0 C 9,8 C 0,0 km/h (0 Bft)
03/05/2012 00:20 9,6 C 77 % 1014,3 hPa 0,0 mm 0,0 km/h (0 Bft) E-NE 67 0 min 0 W/m 5,8 C 9,6 C 0,0 km/h (0 Bft)
03/05/2012 00:30 9,4 C 78 % 1014,3 hPa 0,0 mm 0,0 km/h (0 Bft) E-NE 67 0 min 0 W/m 5,8 C 9,4 C 0,0 km/h (0 Bft)
03/05/2012 00:40 9,1 C 79 % 1014,3 hPa 0,0 mm 0,0 km/h (0 Bft) E 90 0 min 0 W/m 5,7 C 9,1 C 0,0 km/h (0 Bft)
03/05/2012 00:50 8,9 C 79 % 1014,3 hPa 0,0 mm 0,0 km/h (0 Bft) E 90 0 min 0 W/m 5,5 C 8,9 C 0,0 km/h (0 Bft)
03/05/2012 01:00 8,9 C 80 % 1014,1 hPa 0,0 mm 0,0 km/h (0 Bft) E 90 0 min 0 W/m 5,6 C 8,9 C 0,0 km/h (0 Bft)
03/05/2012 01:10 8,8 C 80 % 1014,0 hPa 0,0 mm 0,0 km/h (0 Bft) E 90 0 min 0 W/m 5,5 C 8,8 C 0,0 km/h (0 Bft)
03/05/2012 01:20 8,8 C 82 % 1014,0 hPa 0,0 mm 1,8 km/h (1 Bft) E-SE 112 0 min 0 W/m 5,9 C 8,8 C 4,3 km/h (1 Bft)
03/05/2012 01:30 8,8 C 83 % 1013,8 hPa 0,0 mm 1,1 km/h (1 Bft) E-SE 112 0 min 0 W/m 6,1 C 8,8 C 4,0 km/h (1 Bft)
03/05/2012 01:40 8,8 C 83 % 1013,8 hPa 0,0 mm 0,4 km/h (0 Bft) E 90 0 min 0 W/m 6,1 C 8,8 C 3,6 km/h (1 Bft)
03/05/2012 01:50 8,8 C 84 % 1013,7 hPa 0,0 mm 0,0 km/h (0 Bft) E 90 0 min 0 W/m 6,2 C 8,8 C 3,2 km/h (1 Bft)
03/05/2012 02:00 8,6 C 84 % 1013,6 hPa 0,0 mm 0,4 km/h (0 Bft) E 90 0 min 0 W/m 6,1 C 8,6 C 3,6 km/h (1 Bft)
03/05/2012 02:10 8,5 C 84 % 1013,4 hPa 0,0 mm 2,9 km/h (1 Bft) E 90 0 min 0 W/m 6,0 C 8,5 C 6,5 km/h (2 Bft)
03/05/2012 02:20 8,3 C 84 % 1013,2 hPa 0,0 mm 1,1 km/h (1 Bft) SE 135 0 min 0 W/m 5,8 C 8,3 C 3,6 km/h (1 Bft)
03/05/2012 02:30 8,3 C 85 % 1013,1 hPa 0,0 mm 0,0 km/h (0 Bft) E-SE 112 0 min 0 W/m 5,9 C 8,3 C 0,0 km/h (0 Bft)
03/05/2012 02:40 8,2 C 85 % 1013,0 hPa 0,0 mm 1,8 km/h (1 Bft) E 90 0 min 0 W/m 5,8 C 8,2 C 6,5 km/h (2 Bft)
03/05/2012 02:50 8,1 C 85 % 1013,0 hPa 0,0 mm 1,4 km/h (1 Bft) E-SE 112 0 min 0 W/m 5,7 C 8,1 C 3,2 km/h (1 Bft)
03/05/2012 03:02 8,0 C 86 % 1013,0 hPa 0,0 mm 0,7 km/h (0 Bft) E-SE 112 0 min 0 W/m 5,8 C 8,0 C 3,2 km/h (1 Bft)
03/05/2012 03:10 7,9 C 86 % 1012,9 hPa 0,0 mm 0,4 km/h (0 Bft) E-SE 112 0 min 0 W/m 5,7 C 7,9 C 0,4 km/h (0 Bft)
03/05/2012 03:20 7,9 C 87 % 1012,8 hPa 0,0 mm 0,4 km/h (0 Bft) SE 135 0 min 0 W/m 5,9 C 7,9 C 4,0 km/h (1 Bft)
03/05/2012 03:30 7,9 C 87 % 1012,7 hPa 0,0 mm 4,0 km/h (1 Bft) E 90 0 min 0 W/m 5,9 C 7,9 C 4,3 km/h (1 Bft)
03/05/2012 03:40 7,8 C 87 % 1012,6 hPa 0,0 mm 2,9 km/h (1 Bft) E-SE 112 0 min 0 W/m 5,8 C 7,8 C 4,3 km/h (1 Bft)
03/05/2012 03:50 7,8 C 88 % 1012,6 hPa 0,0 mm 2,2 km/h (1 Bft) E 90 0 min 0 W/m 5,9 C 7,8 C 6,1 km/h (2 Bft)
03/05/2012 04:00 7,7 C 88 % 1012,5 hPa 0,0 mm 2,2 km/h (1 Bft) E 90 0 min 0 W/m 5,8 C 7,7 C 4,0 km/h (1 Bft)
03/05/2012 04:10 7,6 C 88 % 1012,5 hPa 0,0 mm 0,7 km/h (0 Bft) E-SE 112 0 min 0 W/m 5,7 C 7,6 C 3,6 km/h (1 Bft)
03/05/2012 04:20 7,5 C 89 % 1012,6 hPa 0,0 mm 2,9 km/h (1 Bft) E-SE 112 0 min 0 W/m 5,8 C 7,5 C 4,3 km/h (1 Bft)
03/05/2012 04:30 7,4 C 89 % 1012,4 hPa 0,0 mm 0,0 km/h (0 Bft) SE 135 0 min 0 W/m 5,7 C 7,4 C 0,0 km/h (0 Bft)
03/05/2012 04:40 7,3 C 89 % 1012,3 hPa 0,0 mm 2,5 km/h (1 Bft) SE 135 0 min 0 W/m 5,6 C 7,3 C 2,9 km/h (1 Bft)
03/05/2012 04:50 7,2 C 88 % 1012,2 hPa 0,0 mm 2,2 km/h (1 Bft) E 90 0 min 0 W/m 5,3 C 7,2 C 2,2 km/h (1 Bft)
03/05/2012 05:00 7,2 C 89 % 1012,1 hPa 0,0 mm 1,8 km/h (1 Bft) E 90 0 min 0 W/m 5,5 C 7,2 C 4,3 km/h (1 Bft)
03/05/2012 05:10 7,1 C 89 % 1012,1 hPa 0,0 mm 0,0 km/h (0 Bft) SE 135 0 min 0 W/m 5,4 C 7,1 C 0,0 km/h (0 Bft)
03/05/2012 05:20 7,0 C 89 % 1012,0 hPa 0,0 mm 2,9 km/h (1 Bft) SE 135 0 min 0 W/m 5,3 C 7,0 C 4,3 km/h (1 Bft)
03/05/2012 05:30 6,9 C 89 % 1011,9 hPa 0,0 mm 2,5 km/h (1 Bft) E 90 0 min 0 W/m 5,2 C 6,9 C 4,3 km/h (1 Bft)
03/05/2012 05:40 7,1 C 89 % 1011,9 hPa 0,0 mm 1,1 km/h (1 Bft) SE 135 0 min 0 W/m 5,4 C 7,1 C 4,0 km/h (1 Bft)
03/05/2012 05:50 7,1 C 89 % 1011,9 hPa 0,0 mm 0,0 km/h (0 Bft) E 90 0 min 0 W/m 5,4 C 7,1 C 0,0 km/h (0 Bft)
03/05/2012 06:00 7,1 C 89 % 1011,8 hPa 0,0 mm 0,0 km/h (0 Bft) E 90 0 min 0 W/m 5,4 C 7,1 C 0,0 km/h (0 Bft)
03/05/2012 06:10 6,9 C 89 % 1011,8 hPa 0,0 mm 0,0 km/h (0 Bft) E-SE 112 0 min 0 W/m 5,2 C 6,9 C 0,0 km/h (0 Bft)
03/05/2012 06:20 6,8 C 89 % 1011,8 hPa 0,0 mm 3,2 km/h (1 Bft) E-SE 112 0 min 0 W/m 5,1 C 6,8 C 3,6 km/h (1 Bft)
03/05/2012 06:30 6,6 C 89 % 1011,8 hPa 0,0 mm 3,6 km/h (1 Bft) E-SE 112 0 min 0 W/m 4,9 C 6,6 C 3,6 km/h (1 Bft)
03/05/2012 06:40 6,6 C 89 % 1011,7 hPa 0,0 mm 1,8 km/h (1 Bft) E-SE 112 0 min 0 W/m 4,9 C 6,6 C 5,4 km/h (2 Bft)
03/05/2012 06:50 6,4 C 90 % 1011,7 hPa 0,0 mm 1,1 km/h (1 Bft) E-SE 112 2 min 0 W/m 4,9 C 6,4 C 1,1 km/h (1 Bft)
03/05/2012 07:00 6,3 C 90 % 1011,8 hPa 0,0 mm 0,0 km/h (0 Bft) E 90 2 min 0 W/m 4,8 C 6,3 C 0,0 km/h (0 Bft)
03/05/2012 07:10 6,3 C 90 % 1011,9 hPa 0,0 mm 0,0 km/h (0 Bft) E-SE 112 2 min 0 W/m 4,8 C 6,3 C 0,0 km/h (0 Bft)
03/05/2012 07:20 6,2 C 90 % 1011,8 hPa 0,0 mm 2,2 km/h (1 Bft) O-NO 292 2 min 0 W/m 4,7 C 6,2 C 2,2 km/h (1 Bft)
03/05/2012 07:30 6,1 C 90 % 1011,8 hPa 0,0 mm 1,4 km/h (1 Bft) N 360 2 min 0 W/m 4,6 C 6,1 C 2,9 km/h (1 Bft)
03/05/2012 07:40 6,3 C 91 % 1011,8 hPa 0,0 mm 1,1 km/h (1 Bft) N 360 2 min 0 W/m 4,9 C 6,3 C 3,6 km/h (1 Bft)
03/05/2012 07:50 6,6 C 91 % 1011,8 hPa 0,0 mm 1,8 km/h (1 Bft) N 360 2 min 0 W/m 5,2 C 6,6 C 4,3 km/h (1 Bft)
03/05/2012 08:00 7,1 C 91 % 1011,7 hPa 0,0 mm 2,5 km/h (1 Bft) E-NE 67 2 min 0 W/m 5,7 C 7,1 C 4,3 km/h (1 Bft)
03/05/2012 08:10 7,8 C 91 % 1011,6 hPa 0,0 mm 0,7 km/h (0 Bft) E 90 2 min 0 W/m 6,4 C 7,8 C 4,0 km/h (1 Bft)
03/05/2012 08:20 8,4 C 92 % 1011,7 hPa 0,0 mm 0,0 km/h (0 Bft) E-SE 112 2 min 0 W/m 7,2 C 8,4 C 1,4 km/h (1 Bft)
03/05/2012 08:30 9,2 C 92 % 1011,6 hPa 0,0 mm 3,2 km/h (1 Bft) E-SE 112 2 min 0 W/m 8,0 C 9,2 C 4,0 km/h (1 Bft)
03/05/2012 08:40 9,9 C 92 % 1011,6 hPa 0,0 mm 2,2 km/h (1 Bft) E 90 2 min 0 W/m 8,7 C 9,9 C 2,9 km/h (1 Bft)
03/05/2012 08:50 10,3 C 90 % 1011,6 hPa 0,0 mm 3,2 km/h (1 Bft) E-SE 112 2 min 0 W/m 8,7 C 10,3 C 3,2 km/h (1 Bft)
03/05/2012 09:00 10,6 C 89 % 1011,7 hPa 0,0 mm 0,4 km/h (0 Bft) E 90 2 min 0 W/m 8,9 C 10,6 C 0,4 km/h (0 Bft)
03/05/2012 09:10 11,1 C 88 % 1011,8 hPa 0,0 mm 1,4 km/h (1 Bft) SE 135 2 min 0 W/m 9,2 C 11,1 C 3,2 km/h (1 Bft)
03/05/2012 09:20 11,8 C 87 % 1011,6 hPa 0,0 mm 1,4 km/h (1 Bft) E-SE 112 2 min 0 W/m 9,7 C 11,8 C 1,4 km/h (1 Bft)
03/05/2012 09:30 12,6 C 86 % 1011,5 hPa 0,0 mm 2,9 km/h (1 Bft) E-SE 112 2 min 0 W/m 10,3 C 12,6 C 6,8 km/h (2 Bft)
03/05/2012 09:40 13,7 C 84 % 1011,6 hPa 0,0 mm 0,7 km/h (0 Bft) E-SE 112 2 min 0 W/m 11,0 C 13,7 C 0,7 km/h (0 Bft)
03/05/2012 09:50 14,6 C 81 % 1011,7 hPa 0,0 mm 0,4 km/h (0 Bft) E 90 2 min 0 W/m 11,4 C 14,6 C 0,4 km/h (0 Bft)
03/05/2012 10:00 15,6 C 79 % 1011,7 hPa 0,0 mm 0,0 km/h (0 Bft) SE 135 2 min 0 W/m 12,0 C 15,6 C 0,0 km/h (0 Bft)
03/05/2012 10:10 16,5 C 76 % 1011,5 hPa 0,0 mm 2,9 km/h (1 Bft) S 180 2 min 0 W/m 12,3 C 16,5 C 4,3 km/h (1 Bft)
03/05/2012 10:20 17,5 C 72 % 1011,5 hPa 0,0 mm 1,4 km/h (1 Bft) SE 135 2 min 0 W/m 12,4 C 17,5 C 4,3 km/h (1 Bft)
03/05/2012 10:30 18,3 C 66 % 1011,5 hPa 0,0 mm 1,1 km/h (1 Bft) S 180 2 min 0 W/m 11,8 C 18,3 C 1,1 km/h (1 Bft)
03/05/2012 10:40 18,9 C 65 % 1011,5 hPa 0,0 mm 0,0 km/h (0 Bft) SO 225 2 min 0 W/m 12,2 C 18,9 C 0,0 km/h (0 Bft)
03/05/2012 10:50 19,5 C 62 % 1011,5 hPa 0,0 mm 2,2 km/h (1 Bft) S 180 2 min 0 W/m 12,0 C 19,5 C 3,6 km/h (1 Bft)
03/05/2012 11:00 20,1 C 59 % 1011,5 hPa 0,0 mm 2,2 km/h (1 Bft) SO 225 2 min 0 W/m 11,8 C 20,1 C 6,5 km/h (2 Bft)
03/05/2012 11:10 20,2 C 55 % 1011,5 hPa 0,0 mm 6,8 km/h (2 Bft) S-SO 202 2 min 0 W/m 10,9 C 20,2 C 10,1 km/h (2 Bft)
03/05/2012 11:20 20,6 C 58 % 1011,6 hPa 0,0 mm 2,9 km/h (1 Bft) SO 225 2 min 0 W/m 12,0 C 20,6 C 4,0 km/h (1 Bft)
03/05/2012 11:30 20,8 C 55 % 1011,5 hPa 0,0 mm 1,1 km/h (1 Bft) SO 225 2 min 0 W/m 11,4 C 20,8 C 1,1 km/h (1 Bft)
03/05/2012 11:40 20,8 C 52 % 1011,5 hPa 0,0 mm 6,5 km/h (2 Bft) SO 225 2 min 0 W/m 10,6 C 20,8 C 9,0 km/h (2 Bft)
03/05/2012 11:50 21,0 C 55 % 1011,5 hPa 0,0 mm 1,4 km/h (1 Bft) S-SO 202 2 min 0 W/m 11,6 C 21,0 C 6,5 km/h (2 Bft)
03/05/2012 12:00 21,3 C 54 % 1011,3 hPa 0,0 mm 0,7 km/h (0 Bft) SO 225 2 min 0 W/m 11,6 C 21,3 C 0,7 km/h (0 Bft)
03/05/2012 12:10 21,7 C 52 % 1011,3 hPa 0,0 mm 0,7 km/h (0 Bft) O-SO 247 2 min 0 W/m 11,4 C 21,7 C 3,6 km/h (1 Bft)
03/05/2012 12:20 21,8 C 52 % 1011,2 hPa 0,0 mm 4,3 km/h (1 Bft) S-SE 157 2 min 0 W/m 11,5 C 21,8 C 4,3 km/h (1 Bft)
03/05/2012 12:30 22,0 C 53 % 1011,1 hPa 0,0 mm 5,0 km/h (1 Bft) S-SO 202 2 min 0 W/m 12,0 C 22,0 C 12,6 km/h (3 Bft)
03/05/2012 12:40 22,1 C 52 % 1010,9 hPa 0,0 mm 1,8 km/h (1 Bft) O-SO 247 2 min 0 W/m 11,8 C 22,1 C 3,6 km/h (1 Bft)
03/05/2012 12:50 22,3 C 55 % 1010,9 hPa 0,0 mm 4,3 km/h (1 Bft) S-SE 157 2 min 0 W/m 12,8 C 22,3 C 9,7 km/h (2 Bft)
03/05/2012 13:00 22,6 C 53 % 1010,8 hPa 0,0 mm 3,6 km/h (1 Bft) S-SO 202 2 min 0 W/m 12,5 C 22,6 C 7,2 km/h (2 Bft)
03/05/2012 13:10 21,9 C 51 % 1010,7 hPa 0,0 mm 3,6 km/h (1 Bft) S-SO 202 2 min 0 W/m 11,3 C 21,9 C 3,6 km/h (1 Bft)
03/05/2012 13:20 21,4 C 54 % 1010,6 hPa 0,0 mm 1,4 km/h (1 Bft) SO 225 2 min 0 W/m 11,7 C 21,4 C 3,2 km/h (1 Bft)
03/05/2012 13:30 21,0 C 52 % 1010,6 hPa 0,0 mm 2,5 km/h (1 Bft) S-SO 202 2 min 0 W/m 10,8 C 21,0 C 4,0 km/h (1 Bft)
03/05/2012 13:40 20,8 C 54 % 1010,6 hPa 0,0 mm 4,3 km/h (1 Bft) S-SO 202 2 min 0 W/m 11,1 C 20,8 C 7,9 km/h (2 Bft)
03/05/2012 13:50 20,9 C 53 % 1010,5 hPa 0,0 mm 6,1 km/h (2 Bft) SE 135 2 min 0 W/m 11,0 C 20,9 C 6,1 km/h (2 Bft)
03/05/2012 14:00 21,2 C 53 % 1010,4 hPa 0,0 mm 3,6 km/h (1 Bft) S-SO 202 2 min 0 W/m 11,2 C 21,2 C 7,6 km/h (2 Bft)
03/05/2012 14:10 21,8 C 49 % 1010,3 hPa 0,0 mm 7,9 km/h (2 Bft) S-SO 202 2 min 0 W/m 10,6 C 21,8 C 10,1 km/h (2 Bft)
03/05/2012 14:20 22,3 C 44 % 1010,2 hPa 0,0 mm 7,2 km/h (2 Bft) S-SO 202 2 min 0 W/m 9,5 C 22,3 C 8,6 km/h (2 Bft)
03/05/2012 14:30 22,4 C 44 % 1010,0 hPa 0,0 mm 0,7 km/h (0 Bft) O-SO 247 2 min 0 W/m 9,5 C 22,4 C 3,2 km/h (1 Bft)
03/05/2012 14:40 22,7 C 45 % 1009,9 hPa 0,0 mm 1,1 km/h (1 Bft) S-SO 202 2 min 0 W/m 10,1 C 22,7 C 1,1 km/h (1 Bft)
03/05/2012 14:50 23,0 C 43 % 1009,8 hPa 0,0 mm 10,1 km/h (2 Bft) N 360 2 min 0 W/m 9,7 C 23,0 C 11,2 km/h (2 Bft)
03/05/2012 15:00 23,2 C 43 % 1009,8 hPa 0,0 mm 2,9 km/h (1 Bft) S-SO 202 0 min 0 W/m 9,9 C 23,2 C 6,8 km/h (2 Bft)
03/05/2012 15:10 23,3 C 41 % 1009,7 hPa 0,0 mm 8,6 km/h (2 Bft) S-SO 202 0 min 0 W/m 9,3 C 23,3 C 12,2 km/h (2 Bft)
03/05/2012 15:20 23,1 C 42 % 1009,5 hPa 0,0 mm 0,7 km/h (0 Bft) SO 225 0 min 0 W/m 9,5 C 23,1 C 0,7 km/h (0 Bft)
03/05/2012 15:30 23,3 C 41 % 1009,4 hPa 0,0 mm 4,3 km/h (1 Bft) S-SO 202 0 min 0 W/m 9,3 C 23,3 C 4,3 km/h (1 Bft)
03/05/2012 15:40 23,2 C 44 % 1009,3 hPa 0,0 mm 1,1 km/h (1 Bft) S-SE 157 0 min 0 W/m 10,3 C 23,2 C 3,2 km/h (1 Bft)
03/05/2012 15:50 23,3 C 41 % 1009,1 hPa 0,0 mm 1,1 km/h (1 Bft) S-SO 202 0 min 0 W/m 9,3 C 23,3 C 1,1 km/h (1 Bft)
03/05/2012 16:00 23,1 C 42 % 1009,0 hPa 0,0 mm 1,8 km/h (1 Bft) SO 225 0 min 0 W/m 9,5 C 23,1 C 4,3 km/h (1 Bft)
03/05/2012 16:10 22,7 C 42 % 1009,0 hPa 0,0 mm 1,1 km/h (1 Bft) O-SO 247 0 min 0 W/m 9,1 C 22,7 C 1,1 km/h (1 Bft)
03/05/2012 16:20 22,4 C 46 % 1008,9 hPa 0,0 mm 0,0 km/h (0 Bft) O-SO 247 0 min 0 W/m 10,2 C 22,4 C 0,0 km/h (0 Bft)
03/05/2012 16:30 22,2 C 45 % 1008,7 hPa 0,0 mm 0,0 km/h (0 Bft) N 360 0 min 0 W/m 9,7 C 22,2 C 0,0 km/h (0 Bft)
03/05/2012 16:40 22,1 C 47 % 1008,6 hPa 0,0 mm 0,7 km/h (0 Bft) O-NO 292 0 min 0 W/m 10,3 C 22,1 C 6,1 km/h (2 Bft)
03/05/2012 16:50 22,0 C 47 % 1008,4 hPa 0,0 mm 0,0 km/h (0 Bft) O 270 0 min 0 W/m 10,2 C 22,0 C 0,0 km/h (0 Bft)
03/05/2012 17:00 22,3 C 46 % 1008,5 hPa 0,0 mm 0,0 km/h (0 Bft) O-SO 247 0 min 0 W/m 10,1 C 22,3 C 0,0 km/h (0 Bft)
03/05/2012 17:10 22,6 C 44 % 1008,4 hPa 0,0 mm 0,4 km/h (0 Bft) SO 225 0 min 0 W/m 9,7 C 22,6 C 2,9 km/h (1 Bft)
03/05/2012 17:20 23,0 C 44 % 1008,3 hPa 0,0 mm 5,4 km/h (2 Bft) S-SO 202 0 min 0 W/m 10,1 C 23,0 C 5,4 km/h (2 Bft)
03/05/2012 17:30 23,1 C 44 % 1008,2 hPa 0,0 mm 6,8 km/h (2 Bft) SE 135 0 min 0 W/m 10,2 C 23,1 C 8,6 km/h (2 Bft)
03/05/2012 17:40 22,8 C 44 % 1008,1 hPa 0,0 mm 0,7 km/h (0 Bft) E-SE 112 0 min 0 W/m 9,9 C 22,8 C 0,7 km/h (0 Bft)
03/05/2012 17:50 22,5 C 46 % 1008,2 hPa 0,0 mm 1,1 km/h (1 Bft) E-SE 112 0 min 0 W/m 10,3 C 22,5 C 5,0 km/h (1 Bft)
03/05/2012 18:00 22,2 C 47 % 1008,1 hPa 0,0 mm 2,9 km/h (1 Bft) E 90 0 min 0 W/m 10,3 C 22,2 C 4,3 km/h (1 Bft)
03/05/2012 18:10 21,9 C 47 % 1007,9 hPa 0,0 mm 0,7 km/h (0 Bft) E 90 0 min 0 W/m 10,1 C 21,9 C 3,6 km/h (1 Bft)
03/05/2012 18:20 21,8 C 47 % 1007,9 hPa 0,0 mm 0,4 km/h (0 Bft) E-NE 67 0 min 0 W/m 10,0 C 21,8 C 4,7 km/h (1 Bft)
03/05/2012 18:30 21,7 C 47 % 1007,8 hPa 0,0 mm 0,0 km/h (0 Bft) E-SE 112 0 min 0 W/m 9,9 C 21,7 C 0,0 km/h (0 Bft)
03/05/2012 18:40 21,6 C 47 % 1007,7 hPa 0,0 mm 1,8 km/h (1 Bft) SE 135 0 min 0 W/m 9,8 C 21,6 C 4,0 km/h (1 Bft)
03/05/2012 18:50 21,3 C 49 % 1007,7 hPa 0,0 mm 8,6 km/h (2 Bft) SO 225 0 min 0 W/m 10,1 C 21,3 C 14,0 km/h (3 Bft)
03/05/2012 19:00 20,5 C 48 % 1007,9 hPa 0,0 mm 3,2 km/h (1 Bft) S-SO 202 0 min 0 W/m 9,1 C 20,5 C 4,0 km/h (1 Bft)
03/05/2012 19:10 19,4 C 59 % 1008,1 hPa 0,0 mm 7,2 km/h (2 Bft) SO 225 2 min 0 W/m 11,2 C 19,4 C 9,7 km/h (2 Bft)
03/05/2012 19:20 17,6 C 63 % 1008,1 hPa 0,3 mm 0,7 km/h (0 Bft) SO 225 2 min 0 W/m 10,5 C 17,6 C 0,7 km/h (0 Bft)
03/05/2012 19:30 16,8 C 68 % 1007,9 hPa 0,2 mm 2,2 km/h (1 Bft) S-SO 202 2 min 0 W/m 10,9 C 16,8 C 3,6 km/h (1 Bft)
03/05/2012 19:40 16,1 C 66 % 1007,9 hPa 0,0 mm 0,0 km/h (0 Bft) SE 135 2 min 0 W/m 9,7 C 16,1 C 0,0 km/h (0 Bft)
03/05/2012 19:50 15,8 C 70 % 1007,9 hPa 0,0 mm 0,0 km/h (0 Bft) SE 135 2 min 0 W/m 10,3 C 15,8 C 0,0 km/h (0 Bft)
03/05/2012 20:00 15,6 C 71 % 1008,0 hPa 0,0 mm 0,0 km/h (0 Bft) SE 135 2 min 0 W/m 10,4 C 15,6 C 0,0 km/h (0 Bft)
03/05/2012 20:10 15,5 C 71 % 1008,0 hPa 0,0 mm 0,4 km/h (0 Bft) E-SE 112 2 min 0 W/m 10,3 C 15,5 C 0,4 km/h (0 Bft)
03/05/2012 20:20 15,4 C 71 % 1008,0 hPa 0,0 mm 1,8 km/h (1 Bft) E-SE 112 2 min 0 W/m 10,2 C 15,4 C 3,6 km/h (1 Bft)
03/05/2012 20:30 15,4 C 72 % 1007,8 hPa 0,0 mm 1,1 km/h (1 Bft) E-SE 112 2 min 0 W/m 10,4 C 15,4 C 3,6 km/h (1 Bft)
03/05/2012 20:40 15,3 C 72 % 1007,9 hPa 0,0 mm 0,0 km/h (0 Bft) E-SE 112 2 min 0 W/m 10,3 C 15,3 C 0,0 km/h (0 Bft)
03/05/2012 20:50 15,1 C 72 % 1007,8 hPa 0,0 mm 0,0 km/h (0 Bft) E-SE 112 2 min 0 W/m 10,1 C 15,1 C 0,0 km/h (0 Bft)
03/05/2012 21:00 15,0 C 72 % 1007,8 hPa 0,0 mm 0,0 km/h (0 Bft) E-SE 112 0 min 0 W/m 10,0 C 15,0 C 0,0 km/h (0 Bft)
03/05/2012 21:10 14,8 C 73 % 1007,8 hPa 0,0 mm 0,0 km/h (0 Bft) E-SE 112 0 min 0 W/m 10,0 C 14,8 C 0,0 km/h (0 Bft)
03/05/2012 21:20 14,6 C 73 % 1007,8 hPa 0,0 mm 0,0 km/h (0 Bft) E-SE 112 0 min 0 W/m 9,8 C 14,6 C 0,0 km/h (0 Bft)
03/05/2012 21:30 14,4 C 73 % 1007,8 hPa 0,0 mm 0,0 km/h (0 Bft) E-SE 112 0 min 0 W/m 9,6 C 14,4 C 0,0 km/h (0 Bft)
03/05/2012 21:40 14,1 C 73 % 1007,8 hPa 0,0 mm 0,0 km/h (0 Bft) E-SE 112 0 min 0 W/m 9,3 C 14,1 C 0,0 km/h (0 Bft)
03/05/2012 21:50 13,9 C 74 % 1007,8 hPa 0,0 mm 0,0 km/h (0 Bft) E-SE 112 0 min 0 W/m 9,3 C 13,9 C 0,0 km/h (0 Bft)
03/05/2012 22:00 13,8 C 75 % 1008,0 hPa 0,0 mm 0,0 km/h (0 Bft) E-SE 112 0 min 0 W/m 9,4 C 13,8 C 0,0 km/h (0 Bft)
03/05/2012 22:10 13,5 C 77 % 1008,0 hPa 0,0 mm 0,0 km/h (0 Bft) E-SE 112 0 min 0 W/m 9,5 C 13,5 C 0,0 km/h (0 Bft)
03/05/2012 22:20 13,3 C 78 % 1008,1 hPa 0,0 mm 0,0 km/h (0 Bft) E-SE 112 0 min 0 W/m 9,5 C 13,3 C 0,0 km/h (0 Bft)
03/05/2012 22:30 13,1 C 80 % 1008,1 hPa 0,0 mm 0,0 km/h (0 Bft) E-SE 112 0 min 0 W/m 9,7 C 13,1 C 0,0 km/h (0 Bft)
03/05/2012 22:40 12,9 C 80 % 1008,0 hPa 0,0 mm 0,0 km/h (0 Bft) E-SE 112 0 min 0 W/m 9,5 C 12,9 C 0,0 km/h (0 Bft)
03/05/2012 22:50 12,8 C 80 % 1008,0 hPa 0,0 mm 0,0 km/h (0 Bft) E-SE 112 0 min 0 W/m 9,4 C 12,8 C 0,0 km/h (0 Bft)
03/05/2012 23:00 12,6 C 80 % 1007,9 hPa 0,0 mm 0,0 km/h (0 Bft) E-SE 112 0 min 0 W/m 9,2 C 12,6 C 0,0 km/h (0 Bft)
03/05/2012 23:10 12,5 C 80 % 1007,9 hPa 0,0 mm 0,0 km/h (0 Bft) E-SE 112 0 min 0 W/m 9,1 C 12,5 C 0,0 km/h (0 Bft)
03/05/2012 23:20 12,4 C 81 % 1007,9 hPa 0,0 mm 0,0 km/h (0 Bft) E-SE 112 0 min 0 W/m 9,2 C 12,4 C 0,0 km/h (0 Bft)
03/05/2012 23:30 12,4 C 82 % 1007,9 hPa 0,0 mm 0,0 km/h (0 Bft) E-SE 112 0 min 0 W/m 9,4 C 12,4 C 0,0 km/h (0 Bft)
03/05/2012 23:40 12,4 C 83 % 1007,7 hPa 0,0 mm 0,4 km/h (0 Bft) E-NE 67 0 min 0 W/m 9,6 C 12,4 C 3,6 km/h (1 Bft)
_ Min-Heure 07:30 15:50 23:40 - 23:30 - - - - 07:30 07:30 23:30
Minimum _ 6,1 C 41 % 1007,7 hPa - 0,0 km/h (0 Bft) - - - - 4,6 C 6,1 C 0,0 km/h (0 Bft)
_ Max-Heure 15:50 08:40 00:00 19:20 14:50 - - 20:50 23:40 12:50 15:50 18:50
Maximum _ 23,3 C 92 % 1014,4 hPa 0,3 mm 10,1 km/h
N (2 Bft)
- - 2 min 0 W/m 12,8 C 23,3 C 14,0 km/h
SO (3 Bft)
Moyenne _ 14,6 C 70 % 1010,6 hPa #0,5 mm 1,7 km/h (1 Bft) E-SE - #2:00 h 0 W/m 8,6 C 14,6 C 3,1 km/h (1 Bft)
Saint Bonnet de Bellac- Haute Vienne - France